DRUMS (49401 NORAD) Tracking and Keplerian Element Data

This shows tracking and keplerian element data for the satellite.

Feedback or suggestion? Click here.




ElementValue
Catalog49401
NameDRUMS
Epoch Orbit1022
Epoch Day16.15019323
Epoch Year2022
RAAN79.0323
Inclination97.561
Eccentricity0.0022754
Argument of Perigee26.4392
Mean Anonmoly333.7989
Mean Motion15.02389926
Decay Rate5.53E-06
L11 49401U 21102G 22016.15019323 .00000553 00000+0 46117-4 0 9994
L22 49401 97.5610 79.0323 0022754 26.4392 333.7989 15.02389926 10220

Live tracking and technical data element details for DRUMS (NORAD 49401). DRUMS can be tracked NOW for your location showing map with azimuth and elevation plus other details from your city location.

Track the satellite on the map from your city or location and see movement details for azimuth, elevation, latitude, longitude, range, height, and movement on the map or in text.







IsCatalogInMostPopularTable: catalog: 49401, numindb: 5
Update: records affected: 1



GetName: 49401 DRUMS

Hit Count: updated at: Thu, 20 Jan 2022 16:26:42 GMT